Location: Angwan Shehu
(11.2514°N, 7.4613°E)
Time: 00:10:50
(UTC+00:00)

Tiros 1 - Pass Details

Date: 29 April 2021
Orbit: 630 x 664 km, 48.4° (Epoch: 06 May)

Event Time Altitude Azimuth Distance (km) Brightness Sun altitude
Rises 03:19:43 0° 233° (SW) 2,979 - -27.0°
Reaches altitude 10° 03:22:10 10° 240° (WSW) 2,063 - -26.4°
Maximum altitude 03:26:41 43° 311° (NW) 912 - -25.4°
Exits shadow 03:27:31 39° 340° (NNW) 972 8.0 -25.2°
Drops below altitude 10° 03:31:11 10° 23° (NNE) 2,045 10.3 -24.4°
Sets 03:33:36 0° 30° (NNE) 2,949 11.3 -23.8°
